Overview Statistics Trail Chart Weather Telemetry Raw packets
 

This is the latest recevied weather packets stored in our database for station/object DB7GV-8. If no packets are shown the sender has not sent any weather packets the latest 10 day(s).

<< 7 8 9 10 11 12 13 >>
Time Temp. Humidity Pressure Rain* Wind** Luminosity Snow
1777535656 39.44° C - 1023.4 hPa - - - -
1777534751 -12.22° C - - - - - -
1777533845 38.89° C 10% 1023.5 hPa - - - -
1777532940 38.33° C 11% 1023.6 hPa - - - -
1777532034 36.11° C 14% 1023.7 hPa - - - -
1777531129 30° C 21% 1023.7 hPa - - - -
1777530223 8.33° C 47% 1023.7 hPa - - - -
1777529318 6.67° C 50% 1023.6 hPa - - - -
1777528413 7.22° C 49% 1023.5 hPa - - - -
1777527507 6.67° C 51% 1023.5 hPa - - - -
1777525696 6.67° C 50% 1023.4 hPa - - - -
1777524791 6.67° C 48% 1023.5 hPa - - - -
1777523886 6.67° C 45% 1023.2 hPa - - - -
1777522980 7.22° C 45% 1023.1 hPa - - - -
1777522074 7.22° C 45% 1023.1 hPa - - - -
1777521169 7.22° C 44% 1023.2 hPa - - - -
1777520264 7.22° C 43% 1023 hPa - - - -
1777519358 7.78° C 43% 1023.1 hPa - - - -
1777518453 7.78° C 42% 1022.9 hPa - - - -
1777517548 7.78° C 42% 1022.7 hPa - - - -
1777516643 8.33° C 41% 1022.8 hPa - - - -
1777515737 8.33° C 41% 1022.8 hPa - - - -
1777514832 8.33° C 40% 1022.7 hPa - - - -
1777513926 8.89° C 40% 1022.6 hPa - - - -
1777513021 8.89° C 40% 1022.8 hPa - - - -

* Rain since midnight (hover to see other rain measurements)
** Current wind speed in m/s (hover to see current wind gust speed)